WXM80 ListenWXM80 Stop

You find our weather info also at:

UK Metoffice

WeatherCloud

Weather Underground

Northeastern Weather Network

AWEKAS

Citizen Weather Observer Program (CWOP)

HAMweather, WeatherForYou, PWS Weather


Weather Underground History page Text

Daily Summary for September 20, 2017 Units:  Metric    English   Both
« Previous Day
Next Day »
Daily Weekly Monthly Yearly Custom
  High: Low: Average:
Temperature: 24.9 °C 21.2 °C 23 °C
Dew Point: 21.2 °C 19.2 °C 20.1 °C
Humidity: 91 % 77 % 84 %
Wind Speed: 19.3 km/h 0.3 km/h 10 km/h
Wind Gust: 32.2 km/h - -
Wind:- - ENE
Pressure: 1010.7 hPa 1006.7 hPa -
Precipitation: 0 mm    
Historical Graphs
 
 
Tabular Data for September 20, 2017
Time Temperature Dew Point Pressure Wind Wind Speed Wind Gust Humidity Rainfall Rate (Hourly)
00:03 21.5 °C 19.6 °C 1008.7 hPa NNE 10.9 km/h 20.4 km/h 89 % 0 mm
00:08 21.5 °C 19.6 °C 1008.4 hPa ENE 15.4 km/h 18.5 km/h 89 % 0 mm
00:13 21.5 °C 19.8 °C 1008.4 hPa ENE 8.9 km/h 18.5 km/h 90 % 0 mm
00:18 21.5 °C 19.8 °C 1008.7 hPa NNE 11.3 km/h 24.1 km/h 90 % 0 mm
00:23 21.5 °C 19.6 °C 1008.4 hPa NE 15 km/h 25.9 km/h 89 % 0 mm
00:28 21.5 °C 19.6 °C 1008.4 hPa NNE 10.5 km/h 18.5 km/h 89 % 0 mm
00:33 21.5 °C 19.8 °C 1008.4 hPa NNE 13.7 km/h 24.1 km/h 90 % 0 mm
00:38 21.5 °C 19.6 °C 1008.4 hPa NNE 11.6 km/h 18.5 km/h 89 % 0 mm
00:43 21.5 °C 19.6 °C 1008.4 hPa NE 9.5 km/h 25.9 km/h 89 % 0 mm
00:48 21.5 °C 19.6 °C 1008.4 hPa NNE 7.4 km/h 11.3 km/h 89 % 0 mm
00:53 21.5 °C 19.6 °C 1008.4 hPa ENE 9.2 km/h 19.3 km/h 89 % 0 mm
00:58 21.6 °C 19.7 °C 1008.4 hPa NE 10.3 km/h 14.8 km/h 89 % 0 mm
01:03 21.6 °C 19.7 °C 1008.4 hPa NNE 10.9 km/h 22.2 km/h 89 % 0 mm
01:08 21.6 °C 19.7 °C 1008 hPa NNE 11.3 km/h 18.5 km/h 89 % 0 mm
01:13 21.6 °C 19.7 °C 1008 hPa NE 13.8 km/h 25.9 km/h 89 % 0 mm
01:18 21.6 °C 19.7 °C 1008 hPa NNE 10 km/h 18.5 km/h 89 % 0 mm
01:23 21.6 °C 19.7 °C 1008 hPa NE 10.9 km/h 18.5 km/h 89 % 0 mm
01:28 21.7 °C 19.8 °C 1008 hPa NE 13.4 km/h 24.1 km/h 89 % 0 mm
01:33 21.7 °C 19.8 °C 1008 hPa NNE 10.5 km/h 16.7 km/h 89 % 0 mm
01:39 21.7 °C 19.8 °C 1008 hPa NE 15.1 km/h 25.9 km/h 89 % 0 mm
01:44 21.7 °C 19.8 °C 1008 hPa ENE 14.3 km/h 27.8 km/h 89 % 0 mm
01:49 21.7 °C 19.8 °C 1008 hPa NE 14.8 km/h 24.1 km/h 89 % 0 mm
01:54 21.7 °C 19.8 °C 1008 hPa NE 12.9 km/h 24.1 km/h 89 % 0 mm
01:59 21.7 °C 19.8 °C 1008 hPa North 15 km/h 29.6 km/h 89 % 0 mm
02:04 21.7 °C 19.8 °C 1008 hPa ENE 10.6 km/h 20.4 km/h 89 % 0 mm
02:09 21.7 °C 19.8 °C 1008 hPa ENE 10.3 km/h 20.4 km/h 89 % 0 mm
02:14 21.7 °C 19.8 °C 1008 hPa NE 10.5 km/h 24.1 km/h 89 % 0 mm
02:19 21.7 °C 19.8 °C 1007.7 hPa North 12.7 km/h 20.4 km/h 89 % 0 mm
02:24 21.7 °C 19.8 °C 1007.7 hPa NNE 8.7 km/h 22.2 km/h 89 % 0 mm
02:29 21.7 °C 19.8 °C 1007.3 hPa NE 10.8 km/h 31.5 km/h 89 % 0 mm
02:34 21.7 °C 19.8 °C 1007.3 hPa North 12.7 km/h 25.7 km/h 89 % 0 mm
02:39 21.7 °C 19.8 °C 1007.3 hPa NNE 18.2 km/h 31.5 km/h 89 % 0 mm
02:44 21.7 °C 19.6 °C 1007 hPa NNE 11.9 km/h 25.9 km/h 88 % 0 mm
02:49 21.7 °C 19.6 °C 1007 hPa NNE 10.8 km/h 18.5 km/h 88 % 0 mm
02:54 21.7 °C 19.8 °C 1007 hPa North 9.5 km/h 18.5 km/h 89 % 0 mm
02:59 21.7 °C 19.8 °C 1007 hPa NNE 11.4 km/h 20.4 km/h 89 % 0 mm
03:04 21.6 °C 19.7 °C 1007 hPa East 18.2 km/h 25.9 km/h 89 % 0 mm
03:09 21.6 °C 19.6 °C 1006.7 hPa NNW 14.8 km/h 31.5 km/h 88 % 0 mm
03:14 21.6 °C 19.6 °C 1006.7 hPa NE 14.5 km/h 29.6 km/h 88 % 0 mm
03:20 21.6 °C 19.6 °C 1006.7 hPa NNE 14.8 km/h 25.7 km/h 88 % 0 mm
03:25 21.6 °C 19.7 °C 1006.7 hPa North 13.4 km/h 25.9 km/h 89 % 0 mm
03:30 21.6 °C 19.7 °C 1006.7 hPa North 11.4 km/h 25.9 km/h 89 % 0 mm
03:35 21.6 °C 19.7 °C 1006.7 hPa NE 16.1 km/h 31.5 km/h 89 % 0 mm
03:40 21.6 °C 19.7 °C 1006.7 hPa NE 10.8 km/h 22.2 km/h 89 % 0 mm
03:45 21.6 °C 19.6 °C 1006.7 hPa ENE 16.9 km/h 29.6 km/h 88 % 0 mm
03:50 21.6 °C 19.7 °C 1006.7 hPa NNE 8.4 km/h 18.5 km/h 89 % 0 mm
03:55 21.6 °C 19.7 °C 1006.7 hPa North 10.6 km/h 13 km/h 89 % 0 mm
04:00 21.6 °C 19.7 °C 1007 hPa NNE 8.4 km/h 16.7 km/h 89 % 0 mm
04:05 21.6 °C 19.7 °C 1006.7 hPa ENE 15.9 km/h 25.9 km/h 89 % 0 mm
04:10 21.6 °C 19.7 °C 1006.7 hPa NNE 15.6 km/h 27.8 km/h 89 % 0 mm
04:15 21.6 °C 19.7 °C 1007 hPa ENE 10 km/h 18.5 km/h 89 % 0 mm
04:20 21.5 °C 19.6 °C 1007 hPa NNE 10 km/h 14.8 km/h 89 % 0 mm
04:25 21.5 °C 19.6 °C 1007 hPa NE 10.1 km/h 19.3 km/h 89 % 0 mm
04:30 21.4 °C 19.7 °C 1007 hPa ENE 9.8 km/h 14.8 km/h 90 % 0 mm
04:35 21.4 °C 19.7 °C 1007 hPa East 17.9 km/h 30.6 km/h 90 % 0 mm
04:40 21.3 °C 19.6 °C 1007 hPa North 11.4 km/h 19.3 km/h 90 % 0 mm
04:45 21.3 °C 19.6 °C 1007 hPa NE 12.7 km/h 25.9 km/h 90 % 0 mm
04:50 21.2 °C 19.5 °C 1007 hPa ENE 11.1 km/h 14.5 km/h 90 % 0 mm
04:55 21.2 °C 19.7 °C 1007 hPa NNE 12.4 km/h 18.5 km/h 91 % 0 mm
05:01 21.2 °C 19.7 °C 1007 hPa NE 8.2 km/h 13 km/h 91 % 0 mm
05:06 21.2 °C 19.7 °C 1007 hPa North 10.8 km/h 20.4 km/h 91 % 0 mm
05:11 21.2 °C 19.7 °C 1006.7 hPa NE 11.3 km/h 25.7 km/h 91 % 0 mm
05:16 21.2 °C 19.7 °C 1006.7 hPa NE 14.5 km/h 32.2 km/h 91 % 0 mm
05:21 21.2 °C 19.7 °C 1007 hPa NE 11.3 km/h 24.1 km/h 91 % 0 mm
05:26 21.3 °C 19.7 °C 1007 hPa NE 8 km/h 22.5 km/h 91 % 0 mm
05:31 21.3 °C 19.7 °C 1007 hPa NE 8 km/h 20.9 km/h 91 % 0 mm
05:35 21.3 °C 19.7 °C 1007 hPa NNE 7.4 km/h 14.8 km/h 91 % 0 mm
05:40 21.3 °C 19.7 °C 1007 hPa NNE 11.3 km/h 18.5 km/h 91 % 0 mm
05:45 21.3 °C 19.7 °C 1007 hPa NE 12.2 km/h 20.9 km/h 91 % 0 mm
05:50 21.3 °C 19.8 °C 1007 hPa NE 9.3 km/h 27.8 km/h 91 % 0 mm
05:53 21.3 °C 19.8 °C 1007 hPa NNE 11.1 km/h 20.4 km/h 91 % 0 mm
05:58 21.3 °C 19.6 °C 1007 hPa NNE 10 km/h 16.7 km/h 90 % 0 mm
06:03 21.4 °C 19.7 °C 1007 hPa NE 10.8 km/h 29.6 km/h 90 % 0 mm
06:08 21.4 °C 19.7 °C 1007.3 hPa NNE 12.1 km/h 18.5 km/h 90 % 0 mm
06:13 21.5 °C 19.8 °C 1007.3 hPa North 12.1 km/h 29.6 km/h 90 % 0 mm
06:18 21.6 °C 19.8 °C 1007.3 hPa NNE 12.7 km/h 22.2 km/h 90 % 0 mm
06:23 21.6 °C 19.7 °C 1007.3 hPa NE 10 km/h 18.5 km/h 89 % 0 mm
06:28 21.7 °C 19.8 °C 1007.3 hPa North 11.6 km/h 20.4 km/h 89 % 0 mm
06:34 21.7 °C 19.8 °C 1007.3 hPa North 18.8 km/h 30.6 km/h 89 % 0 mm
06:39 21.7 °C 19.8 °C 1007.3 hPa North 16.4 km/h 24.1 km/h 89 % 0 mm
06:44 21.8 °C 19.9 °C 1007.3 hPa NNE 18 km/h 27.8 km/h 89 % 0 mm
06:49 21.8 °C 19.9 °C 1007.3 hPa ENE 14 km/h 25.9 km/h 89 % 0 mm
06:54 21.8 °C 19.9 °C 1007.3 hPa North 14.2 km/h 25.9 km/h 89 % 0 mm
06:59 21.8 °C 19.9 °C 1007.3 hPa NNE 10.5 km/h 22.2 km/h 89 % 0 mm
07:04 21.8 °C 19.9 °C 1007.3 hPa NE 17.5 km/h 25.9 km/h 89 % 0 mm
07:09 21.8 °C 19.8 °C 1007.7 hPa NE 14.6 km/h 29.6 km/h 88 % 0 mm
07:14 21.9 °C 19.8 °C 1007.7 hPa NNE 15.1 km/h 31.5 km/h 88 % 0 mm
07:19 21.9 °C 19.9 °C 1007.7 hPa NE 14.8 km/h 25.7 km/h 88 % 0 mm
07:24 21.9 °C 19.9 °C 1007.7 hPa NNE 13.8 km/h 24.1 km/h 88 % 0 mm
07:29 22 °C 19.9 °C 1007.7 hPa NE 11.3 km/h 18.5 km/h 88 % 0 mm
07:34 22 °C 19.9 °C 1007.7 hPa North 16.1 km/h 30.6 km/h 88 % 0 mm
07:39 22.1 °C 20 °C 1007.7 hPa NE 17.1 km/h 22.2 km/h 88 % 0 mm
07:44 22.1 °C 20 °C 1007.7 hPa NNW 13.4 km/h 18.5 km/h 88 % 0 mm
07:49 22.1 °C 20.1 °C 1008 hPa NE 18.5 km/h 20.4 km/h 88 % 0 mm
07:54 22.1 °C 20.1 °C 1008 hPa NE 15.4 km/h 25.7 km/h 88 % 0 mm
07:59 22.1 °C 20.1 °C 1007.7 hPa North 15.6 km/h 24.1 km/h 88 % 0 mm
08:04 22.2 °C 20.1 °C 1008 hPa North 16.1 km/h 25.7 km/h 88 % 0 mm
08:10 22.2 °C 19.9 °C 1008 hPa NNE 15.6 km/h 25.9 km/h 87 % 0 mm
08:15 22.2 °C 19.9 °C 1008 hPa NNE 14 km/h 18.5 km/h 87 % 0 mm
08:20 22.3 °C 20 °C 1008 hPa NNE 12.6 km/h 22.5 km/h 87 % 0 mm
08:25 22.3 °C 20 °C 1008 hPa NNE 18 km/h 24.1 km/h 87 % 0 mm
08:30 22.3 °C 20.1 °C 1008 hPa NE 16.3 km/h 19.3 km/h 87 % 0 mm
08:35 22.4 °C 20.1 °C 1008.4 hPa NE 14.2 km/h 24.1 km/h 87 % 0 mm
08:40 22.4 °C 19.9 °C 1008.4 hPa NE 13.7 km/h 22.5 km/h 86 % 0 mm
08:45 22.5 °C 20.2 °C 1008.4 hPa NE 13 km/h 29 km/h 87 % 0 mm
08:50 22.6 °C 20.1 °C 1008.4 hPa NNE 13.5 km/h 20.4 km/h 86 % 0 mm
08:55 22.6 °C 20.3 °C 1008.7 hPa NNE 10.5 km/h 22.5 km/h 87 % 0 mm
09:00 22.6 °C 20.1 °C 1008.7 hPa North 14.6 km/h 18.5 km/h 86 % 0 mm
09:06 22.6 °C 20.2 °C 1008.7 hPa NNE 14.5 km/h 24.1 km/h 86 % 0 mm
09:11 22.7 °C 20.2 °C 1008.7 hPa NNE 11.3 km/h 22.5 km/h 86 % 0 mm
09:16 22.7 °C 20.3 °C 1008.7 hPa NNE 12.9 km/h 25.7 km/h 86 % 0 mm
09:21 22.8 °C 20.3 °C 1008.7 hPa NNE 19.3 km/h 32.2 km/h 86 % 0 mm
09:26 22.8 °C 20.4 °C 1008.7 hPa North 9.7 km/h 22.5 km/h 86 % 0 mm
09:31 22.9 °C 20.5 °C 1008.7 hPa North 9.7 km/h 24.1 km/h 86 % 0 mm
09:36 23.1 °C 20.4 °C 1008.7 hPa NNE 10.8 km/h 24.1 km/h 85 % 0 mm
09:41 23.1 °C 20.4 °C 1008.7 hPa North 13.7 km/h 18.5 km/h 85 % 0 mm
09:46 23.2 °C 20.4 °C 1008.7 hPa NNE 12.6 km/h 18.5 km/h 84 % 0 mm
09:51 23.3 °C 20.4 °C 1008.7 hPa North 11.6 km/h 19.3 km/h 84 % 0 mm
09:56 23.3 °C 20.4 °C 1008.7 hPa ENE 13.8 km/h 18.5 km/h 84 % 0 mm
10:01 23.3 °C 20.4 °C 1008.7 hPa NNE 16.6 km/h 24.1 km/h 84 % 0 mm
10:06 23.3 °C 20.5 °C 1008.7 hPa NNE 15.3 km/h 20.9 km/h 84 % 0 mm
10:11 23.3 °C 20.5 °C 1008.7 hPa NNE 12.9 km/h 22.2 km/h 84 % 0 mm
10:16 23.4 °C 20.6 °C 1008.7 hPa North 15.1 km/h 18.5 km/h 84 % 0 mm
10:21 23.4 °C 20.6 °C 1008.7 hPa NNE 13.5 km/h 14.8 km/h 84 % 0 mm
10:26 23.6 °C 20.7 °C 1008.4 hPa NNE 11.3 km/h 18.5 km/h 84 % 0 mm
10:31 23.7 °C 20.6 °C 1008.7 hPa NNE 10.8 km/h 20.4 km/h 83 % 0 mm
10:37 23.8 °C 20.9 °C 1008.7 hPa North 11.4 km/h 18.5 km/h 84 % 0 mm
10:42 23.9 °C 21 °C 1008.7 hPa NE 12.6 km/h 16.7 km/h 84 % 0 mm
10:47 23.9 °C 20.9 °C 1008.7 hPa NNE 12.1 km/h 18.5 km/h 83 % 0 mm
10:52 23.9 °C 20.7 °C 1008.7 hPa NNE 11.1 km/h 18.5 km/h 82 % 0 mm
10:57 23.9 °C 20.7 °C 1008.7 hPa NNE 12.4 km/h 25.9 km/h 82 % 0 mm
11:02 23.9 °C 20.7 °C 1008.7 hPa NNE 12.2 km/h 20.4 km/h 82 % 0 mm
11:07 24 °C 20.7 °C 1008.7 hPa North 11.4 km/h 22.2 km/h 82 % 0 mm
11:12 24.1 °C 21 °C 1008.7 hPa NNW 8.2 km/h 14.8 km/h 83 % 0 mm
11:17 24.1 °C 20.8 °C 1008.7 hPa NE 7.2 km/h 16.1 km/h 82 % 0 mm
11:22 24.1 °C 20.8 °C 1008.7 hPa North 8.9 km/h 18.5 km/h 82 % 0 mm
11:27 24.1 °C 20.8 °C 1008.7 hPa NNE 8 km/h 14.5 km/h 82 % 0 mm
11:32 24.1 °C 21.1 °C 1008.7 hPa North 8.2 km/h 13 km/h 83 % 0 mm
11:37 24.2 °C 20.9 °C 1008.7 hPa North 6.3 km/h 16.7 km/h 82 % 0 mm
11:42 24.3 °C 21 °C 1008.7 hPa North 8.4 km/h 9.3 km/h 82 % 0 mm
11:47 24.3 °C 21.1 °C 1008.7 hPa North 11.7 km/h 18.5 km/h 82 % 0 mm
11:52 24.4 °C 20.9 °C 1008.7 hPa NE 9.3 km/h 18.5 km/h 81 % 0 mm
11:58 24.4 °C 21.2 °C 1008.7 hPa NE 11.4 km/h 13 km/h 82 % 0 mm
12:03 24.4 °C 20.9 °C 1008.7 hPa North 9.8 km/h 11.1 km/h 81 % 0 mm
12:08 24.4 °C 20.8 °C 1008.7 hPa NNE 11.9 km/h 18.5 km/h 80 % 0 mm
12:13 24.4 °C 20.8 °C 1008.7 hPa NNE 14.3 km/h 27.8 km/h 80 % 0 mm
12:18 24.4 °C 20.8 °C 1008.7 hPa NNE 11.3 km/h 18.5 km/h 80 % 0 mm
12:23 24.5 °C 21 °C 1008.7 hPa NNE 9.5 km/h 18.5 km/h 81 % 0 mm
12:28 24.6 °C 21.1 °C 1009 hPa NNE 10 km/h 14.8 km/h 81 % 0 mm
12:33 24.6 °C 21.1 °C 1009 hPa NNE 6.9 km/h 11.1 km/h 81 % 0 mm
12:38 24.5 °C 21 °C 1009 hPa NNE 6.8 km/h 14.8 km/h 81 % 0 mm
12:43 24.4 °C 20.8 °C 1009 hPa NNE 8.4 km/h 18.5 km/h 80 % 0 mm
12:48 24.4 °C 20.7 °C 1009 hPa NE 9.5 km/h 14.8 km/h 80 % 0 mm
12:53 24.3 °C 20.9 °C 1009 hPa North 11.4 km/h 18.5 km/h 81 % 0 mm
12:58 24.3 °C 20.7 °C 1009 hPa North 9.8 km/h 16.7 km/h 80 % 0 mm
13:03 24.3 °C 20.6 °C 1009 hPa North 10.6 km/h 18.5 km/h 80 % 0 mm
13:08 24.3 °C 20.8 °C 1009 hPa North 9.3 km/h 16.7 km/h 81 % 0 mm
13:13 24.3 °C 20.9 °C 1009 hPa NNE 8.4 km/h 16.1 km/h 81 % 0 mm
13:18 24.4 °C 20.9 °C 1008.7 hPa NNW 10 km/h 18.5 km/h 81 % 0 mm
13:23 24.5 °C 21 °C 1008.7 hPa North 6.3 km/h 11.3 km/h 81 % 0 mm
13:28 24.6 °C 21.1 °C 1008.7 hPa NE 7.9 km/h 14.8 km/h 81 % 0 mm
13:33 24.7 °C 21.1 °C 1008.7 hPa NNW 7.2 km/h 14.8 km/h 80 % 0 mm
13:38 24.8 °C 20.9 °C 1008.7 hPa NNE 14.3 km/h 22.2 km/h 79 % 0 mm
13:43 24.9 °C 21 °C 1008.7 hPa NNE 7.6 km/h 14.8 km/h 79 % 0 mm
13:48 24.8 °C 20.9 °C 1008.7 hPa North 8.4 km/h 13 km/h 79 % 0 mm
13:53 24.8 °C 20.9 °C 1008.7 hPa North 6.9 km/h 9.7 km/h 79 % 0 mm
13:58 24.7 °C 20.8 °C 1008.7 hPa North 8.2 km/h 19.3 km/h 79 % 0 mm
14:03 24.6 °C 20.7 °C 1008.7 hPa NNE 9.5 km/h 16.7 km/h 79 % 0 mm
14:08 24.6 °C 20.7 °C 1008.7 hPa North 10.5 km/h 18.5 km/h 79 % 0 mm
14:14 24.6 °C 20.9 °C 1008.7 hPa NNE 9.2 km/h 14.5 km/h 80 % 0 mm
14:19 24.5 °C 20.8 °C 1008.7 hPa NNE 11.4 km/h 16.7 km/h 80 % 0 mm
14:24 24.5 °C 21 °C 1008.7 hPa NNE 10 km/h 14.8 km/h 81 % 0 mm
14:29 24.5 °C 21 °C 1008.4 hPa North 6.6 km/h 18.5 km/h 81 % 0 mm
14:34 24.5 °C 20.8 °C 1008.4 hPa NNE 8.2 km/h 11.1 km/h 80 % 0 mm
14:39 24.6 °C 20.9 °C 1008.4 hPa NE 6.1 km/h 14.8 km/h 80 % 0 mm
14:44 24.6 °C 20.9 °C 1008.7 hPa North 8 km/h 16.1 km/h 80 % 0 mm
14:54 24.7 °C 21.1 °C 1008.4 hPa North 8 km/h 9.7 km/h 80 % 0 mm
14:59 24.8 °C 20.9 °C 1008.4 hPa North 10.8 km/h 18.5 km/h 79 % 0 mm
15:04 24.8 °C 20.9 °C 1008.4 hPa North 13.7 km/h 16.7 km/h 79 % 0 mm
15:09 24.8 °C 20.7 °C 1008.4 hPa NNE 10.6 km/h 22.2 km/h 78 % 0 mm
15:14 24.8 °C 20.9 °C 1008.4 hPa NNW 5.1 km/h 9.7 km/h 79 % 0 mm
15:19 24.7 °C 20.6 °C 1008.7 hPa North 8.2 km/h 14.8 km/h 78 % 0 mm
15:24 24.7 °C 20.8 °C 1008.7 hPa North 10.9 km/h 17.7 km/h 79 % 0 mm
15:29 24.6 °C 20.7 °C 1008.7 hPa North 9.2 km/h 14.8 km/h 79 % 0 mm
15:35 24.6 °C 20.7 °C 1008.7 hPa NNE 9.8 km/h 16.7 km/h 79 % 0 mm
15:40 24.5 °C 20.6 °C 1008.7 hPa NNE 8.5 km/h 14.8 km/h 79 % 0 mm
15:45 24.5 °C 20.6 °C 1009 hPa NNE 9.3 km/h 14.8 km/h 79 % 0 mm
15:50 24.4 °C 20.8 °C 1009 hPa NE 6.8 km/h 13 km/h 80 % 0 mm
15:55 24.4 °C 20.9 °C 1008.7 hPa NNE 4.2 km/h 9.3 km/h 81 % 0 mm
16:00 24.3 °C 20.7 °C 1009 hPa NNE 10.8 km/h 20.4 km/h 80 % 0 mm
16:05 24.3 °C 20.8 °C 1008.7 hPa North 7.4 km/h 16.1 km/h 81 % 0 mm
16:10 24.2 °C 20.6 °C 1009 hPa North 11.1 km/h 16.7 km/h 80 % 0 mm
16:15 24.2 °C 20.6 °C 1009 hPa NNE 9.7 km/h 16.7 km/h 80 % 0 mm
16:20 24.2 °C 20.5 °C 1009 hPa North 10.6 km/h 18.5 km/h 80 % 0 mm
16:25 24.2 °C 20.3 °C 1009 hPa North 13.4 km/h 20.9 km/h 79 % 0 mm
16:30 24.2 °C 20.3 °C 1009 hPa NNW 9 km/h 14.8 km/h 79 % 0 mm
16:35 24.2 °C 20.5 °C 1009 hPa NNE 11.9 km/h 18.5 km/h 80 % 0 mm
16:40 24.2 °C 20.5 °C 1009 hPa North 10.9 km/h 16.7 km/h 80 % 0 mm
16:45 24.2 °C 20.5 °C 1009 hPa NNW 7.1 km/h 17.7 km/h 80 % 0 mm
16:50 24.2 °C 20.6 °C 1009 hPa North 9.8 km/h 16.7 km/h 80 % 0 mm
16:55 24.2 °C 20.3 °C 1009.4 hPa North 14.8 km/h 20.4 km/h 79 % 0 mm
17:00 24.3 °C 20.2 °C 1009 hPa North 8.2 km/h 16.7 km/h 78 % 0 mm
17:05 24.4 °C 20.5 °C 1009 hPa NNE 8.9 km/h 11.1 km/h 79 % 0 mm
17:08 24.4 °C 20.6 °C 1009 hPa North 10.3 km/h 14.8 km/h 79 % 0 mm
17:13 24.5 °C 20.4 °C 1009.4 hPa NNE 12.7 km/h 18.5 km/h 78 % 0 mm
17:18 24.6 °C 20.4 °C 1009.4 hPa NNE 10 km/h 18.5 km/h 78 % 0 mm
17:23 24.6 °C 20.5 °C 1009.4 hPa NE 5.6 km/h 13 km/h 78 % 0 mm
17:28 24.6 °C 20.5 °C 1009.4 hPa NNE 4.2 km/h 7.4 km/h 78 % 0 mm
17:33 24.6 °C 20.5 °C 1009.7 hPa NNE 8.9 km/h 16.7 km/h 78 % 0 mm
17:38 24.6 °C 20.4 °C 1009.7 hPa NNE 5.6 km/h 13 km/h 78 % 0 mm
17:43 24.4 °C 20.3 °C 1009.7 hPa NNE 4.5 km/h 7.4 km/h 78 % 0 mm
17:48 24.4 °C 20.3 °C 1009.7 hPa NNE 7.4 km/h 11.1 km/h 78 % 0 mm
17:53 24.4 °C 20.5 °C 1009.7 hPa North 2.6 km/h 7.4 km/h 79 % 0 mm
17:58 24.3 °C 20.4 °C 1009.7 hPa NW 0.3 km/h 3.7 km/h 79 % 0 mm
18:03 24.3 °C 20.4 °C 1009.7 hPa NNE 6.9 km/h 11.3 km/h 79 % 0 mm
18:09 24.3 °C 20.6 °C 1009.7 hPa NNE 7.7 km/h 11.1 km/h 80 % 0 mm
18:14 24.2 °C 20.3 °C 1009.7 hPa NNE 6.8 km/h 13 km/h 79 % 0 mm
18:19 24.2 °C 20.5 °C 1009.7 hPa NNE 6.3 km/h 11.1 km/h 80 % 0 mm
18:24 24.1 °C 20.2 °C 1009.7 hPa North 10.6 km/h 16.7 km/h 79 % 0 mm
18:29 24.1 °C 20 °C 1009.7 hPa North 8.4 km/h 18.5 km/h 78 % 0 mm
18:34 24.1 °C 20.1 °C 1009.7 hPa NNE 7.2 km/h 12.9 km/h 78 % 0 mm
18:39 24.1 °C 20 °C 1009.7 hPa NNE 11.7 km/h 18.5 km/h 78 % 0 mm
18:44 24.1 °C 19.8 °C 1009.7 hPa NNE 3.5 km/h 9.3 km/h 77 % 0 mm
18:49 24.1 °C 19.8 °C 1009.7 hPa NE 6.6 km/h 11.1 km/h 77 % 0 mm
18:54 24.1 °C 20.1 °C 1009.7 hPa North 10.1 km/h 14.5 km/h 78 % 0 mm
18:59 24.1 °C 20.1 °C 1009.7 hPa NNE 6 km/h 11.1 km/h 78 % 0 mm
19:04 24.1 °C 20 °C 1009.7 hPa NW 5.6 km/h 7.4 km/h 78 % 0 mm
19:09 24.1 °C 20 °C 1010 hPa NNE 7.7 km/h 11.1 km/h 78 % 0 mm
19:14 24 °C 19.9 °C 1010 hPa North 4.2 km/h 14.8 km/h 78 % 0 mm
19:19 23.9 °C 19.9 °C 1010 hPa NW 6.6 km/h 11.1 km/h 78 % 0 mm
19:24 23.9 °C 19.8 °C 1010 hPa NNE 6.1 km/h 18.5 km/h 78 % 0 mm
19:29 23.9 °C 19.8 °C 1010 hPa North 7.6 km/h 11.1 km/h 78 % 0 mm
19:34 23.8 °C 19.8 °C 1010 hPa NNE 5.8 km/h 13 km/h 78 % 0 mm
19:35 23.8 °C 19.8 °C 1010 hPa NNE 8 km/h 13 km/h 78 % 0 mm
19:40 23.8 °C 19.7 °C 1010 hPa North 6 km/h 11.3 km/h 78 % 0 mm
19:45 23.7 °C 19.7 °C 1010 hPa NNE 8.2 km/h 13 km/h 78 % 0 mm
19:50 23.7 °C 19.9 °C 1010 hPa North 5.1 km/h 13 km/h 79 % 0 mm
19:56 23.7 °C 19.8 °C 1010 hPa NNE 3.7 km/h 9.7 km/h 79 % 0 mm
20:01 23.6 °C 19.8 °C 1010 hPa NNE 4.7 km/h 9.3 km/h 79 % 0 mm
20:06 23.6 °C 19.7 °C 1010 hPa NNE 6.1 km/h 11.1 km/h 79 % 0 mm
20:11 23.5 °C 19.8 °C 1010 hPa NNE 7.2 km/h 9.7 km/h 80 % 0 mm
20:16 23.4 °C 19.8 °C 1010 hPa NNE 5.1 km/h 7.4 km/h 80 % 0 mm
20:21 23.4 °C 19.7 °C 1010 hPa North 7.4 km/h 9.3 km/h 80 % 0 mm
20:26 23.3 °C 19.7 °C 1010 hPa North 4.7 km/h 5.6 km/h 80 % 0 mm
20:31 23.3 °C 19.6 °C 1010 hPa North 5.3 km/h 9.3 km/h 80 % 0 mm
20:36 23.2 °C 19.8 °C 1010 hPa North 3.5 km/h 7.4 km/h 81 % 0 mm
20:41 23.2 °C 19.8 °C 1010 hPa NNW 5.5 km/h 9.7 km/h 81 % 0 mm
20:46 23.2 °C 19.7 °C 1010 hPa NNE 5.6 km/h 9.3 km/h 81 % 0 mm
20:51 23.1 °C 19.7 °C 1010 hPa North 5 km/h 7.4 km/h 81 % 0 mm
20:56 23.1 °C 19.6 °C 1010.4 hPa NNE 9.2 km/h 13 km/h 81 % 0 mm
21:01 23.1 °C 19.4 °C 1010 hPa NNE 8.4 km/h 14.5 km/h 80 % 0 mm
21:02 23 °C 19.4 °C 1010.4 hPa NNE 9.8 km/h 14.8 km/h 80 % 0 mm
21:07 23.1 °C 19.4 °C 1010.4 hPa NE 6.1 km/h 9.3 km/h 80 % 0 mm
21:12 23.1 °C 19.4 °C 1010.4 hPa NE 5.5 km/h 8 km/h 80 % 0 mm
21:17 23.1 °C 19.6 °C 1010.4 hPa NNE 0.5 km/h 5.6 km/h 81 % 0 mm
21:22 23.1 °C 19.6 °C 1010.4 hPa NNE 7.7 km/h 12.9 km/h 81 % 0 mm
21:28 23 °C 19.6 °C 1010.4 hPa NNE 4.5 km/h 9.3 km/h 81 % 0 mm
21:33 23 °C 19.4 °C 1010.7 hPa NNE 6.1 km/h 16.7 km/h 80 % 0 mm
21:38 22.9 °C 19.3 °C 1010.7 hPa North 7.1 km/h 14.8 km/h 80 % 0 mm
21:43 22.9 °C 19.5 °C 1010.4 hPa North 6.1 km/h 9.3 km/h 81 % 0 mm
21:48 22.9 °C 19.5 °C 1010.4 hPa NNW 3.5 km/h 9.3 km/h 81 % 0 mm
21:53 22.9 °C 19.5 °C 1010.4 hPa North 4.7 km/h 7.4 km/h 81 % 0 mm
21:58 22.9 °C 19.3 °C 1010.4 hPa NNW 6.3 km/h 13 km/h 80 % 0 mm
22:03 22.9 °C 19.4 °C 1010.7 hPa NNE 4.8 km/h 11.3 km/h 81 % 0 mm
22:08 22.9 °C 19.3 °C 1010.4 hPa North 7.6 km/h 11.1 km/h 80 % 0 mm
22:13 22.9 °C 19.4 °C 1010.4 hPa NNW 4.5 km/h 7.4 km/h 81 % 0 mm
22:18 22.9 °C 19.4 °C 1010.4 hPa NNW 7.7 km/h 12.9 km/h 81 % 0 mm
22:23 22.9 °C 19.4 °C 1010.4 hPa NNE 4.3 km/h 9.3 km/h 81 % 0 mm
22:28 22.8 °C 19.2 °C 1010.4 hPa NNE 8.2 km/h 13 km/h 80 % 0 mm
22:33 22.8 °C 19.4 °C 1010.4 hPa NNE 7.2 km/h 11.1 km/h 81 % 0 mm
22:38 22.9 °C 19.4 °C 1010.4 hPa NNE 2.9 km/h 5.6 km/h 81 % 0 mm
22:43 22.8 °C 19.4 °C 1010.4 hPa North 10 km/h 14.8 km/h 81 % 0 mm
22:48 22.8 °C 19.4 °C 1010.4 hPa NNE 6.8 km/h 11.1 km/h 81 % 0 mm
22:53 22.8 °C 19.4 °C 1010.4 hPa NNE 6.6 km/h 11.1 km/h 81 % 0 mm
22:58 22.9 °C 19.4 °C 1010.4 hPa NNW 1.1 km/h 7.4 km/h 81 % 0 mm
23:03 22.9 °C 19.7 °C 1010.4 hPa NE 2.1 km/h 5.6 km/h 82 % 0 mm
23:08 22.8 °C 19.6 °C 1010.7 hPa North 5.5 km/h 9.3 km/h 82 % 0 mm
23:13 22.8 °C 19.6 °C 1010.4 hPa North 6 km/h 11.1 km/h 82 % 0 mm
23:18 22.8 °C 19.6 °C 1010.7 hPa NNE 5.5 km/h 13 km/h 82 % 0 mm
23:20 22.8 °C 19.6 °C 1010.4 hPa NNE 3.9 km/h 5.6 km/h 82 % 0 mm
23:22 22.8 °C 19.6 °C 1010.7 hPa NNE 6.4 km/h 9.3 km/h 82 % 0 mm
23:27 22.8 °C 19.6 °C 1010.7 hPa North 5.5 km/h 11.1 km/h 82 % 0 mm
23:30 22.8 °C 19.6 °C 1010.7 hPa North 6 km/h 9.3 km/h 82 % 0 mm
23:35 22.7 °C 19.5 °C 1010.7 hPa North 10.1 km/h 16.7 km/h 82 % 0 mm
23:40 22.7 °C 19.5 °C 1010.7 hPa North 5.3 km/h 11.1 km/h 82 % 0 mm
23:45 22.7 °C 19.7 °C 1010.7 hPa North 4.7 km/h 7.4 km/h 83 % 0 mm
23:50 22.7 °C 19.7 °C 1010.7 hPa NNE 8.2 km/h 16.7 km/h 83 % 0 mm
23:55 22.7 °C 19.5 °C 1010.7 hPa NNE 5.5 km/h 9.3 km/h 82 % 0 mm
Crab Meadow Weather
Compliments of Weather Underground - 3 mb

Script developed by  Jim McMurry - jmcmurry@mwt.net Adapted for the template by  Wim van der Kuil - Leuven-Template.eu

Astronomy: It takes Saturn exactly 29.46 years to travel once around the Sun.